Location: Jackson Park
(37.2862°N, 79.9123°W)
Time: 22:50:42
(UTC+00:00)

ISS - Pass Details

Date: 19 April 2026
Orbit: 414 x 424 km, 51.6° (Epoch: 15 May)

Event Time Altitude Azimuth Distance (km) Brightness Sun altitude
Exits shadow 08:52:29 41° 144° (SE) 615 -3.0 -20.3°
Maximum altitude 08:52:39 42° 135° (SE) 611 -2.9 -20.3°
Drops below altitude 10° 08:55:51 10° 63° (ENE) 1,500 0.3 -19.7°
Sets 08:58:01 0° 56° (NE) 2,369 1.7 -19.4°
